Flag for Poland Weather past 2 weeks in Kraków, Poland

Now
57 °F

Scattered clouds.


Feels Like: 57 °F
Forecast: 45 / 72 °F
Wind: 1 mph from North

Location: Krakow Airport

Current Time: Aug 21, 2014 at 2:44:48 PM

Latest Report: Aug 21, 2014 at 2:00 PM


Visibility: N/A

Pressure: 30.04 "Hg

Humidity: 82%

Dew point: 52 °F

Location of KrakówLocation

Historic Weather in Kraków — Graph

°F

Kraków temperature yesterday

Maximum temperature yesterday: 70 °F (at 2:30 PM)
Minimum temperature yesterday: 48 °F (at 4:00 AM)
Average temperature yesterday: 60 °F

Past Weeks' High & Low Weather Summary

 TemperatureHumidityPressure
High86 °F (Aug 9, 5:00 PM)100% (Aug 7, 8:30 PM)30.04 "Hg (Aug 7, 8:30 PM)
Low48 °F (Aug 20, 4:00 AM)36% (Aug 18, 2:00 PM)29.62 "Hg (Aug 13, 11:00 PM)
Average65 °F80%29.93 "Hg
* Reported Aug 6 1:00 PM — Aug 21 1:30 PM, Kraków, Weather by CustomWeather, © 2014

Note: Actual official high and low records may vary slightly from our data, if they occured in-between our weather recording intervals... More about our weather records

Advertising

Kraków weather history for previous 24 hours

 ConditionsComfort  
Time TempWeatherWind HumidityBarometerVisibility
1:30 PM
Aug 21
55 °FLight rain. Scattered clouds.3 mph94%30.04 "HgN/A
1:00 PM55 °FLight rain. Scattered clouds.3 mph94%30.04 "HgN/A
12:30 PM55 °FLight rain. Scattered clouds.6 mph94%30.04 "Hg5 mi
12:00 PM55 °FLight rain. Scattered clouds.1 mph94%30.04 "Hg5 mi
11:30 AM55 °FLight rain. Scattered clouds.6 mph88%30.04 "Hg5 mi
11:00 AM55 °FLight rain. Scattered clouds.8 mph94%30.04 "Hg5 mi
10:30 AM55 °FScattered clouds.8 mph94%30.01 "Hg5 mi
10:00 AM55 °FLight rain. Partly sunny.9 mph94%30.01 "Hg5 mi
9:30 AM55 °FLight rain. Partly sunny.8 mph94%30.01 "Hg5 mi
9:00 AM55 °FLight rain. Partly sunny.8 mph88%30.01 "Hg5 mi
8:30 AM55 °FLight rain. Scattered clouds.2 mph94%29.98 "HgN/A
8:00 AM55 °FLight rain. Scattered clouds.2 mph94%29.98 "HgN/A
7:30 AM55 °FLight rain. Scattered clouds.3 mph94%29.98 "HgN/A
7:00 AM57 °FLight rain. Scattered clouds.No wind88%29.98 "HgN/A
6:30 AM55 °FClear.No wind94%29.98 "Hg10 mi
6:00 AM55 °FClear.1 mph94%29.98 "Hg10 mi
5:30 AM55 °FClear.No wind88%29.98 "Hg10 mi
5:00 AM55 °FClear.No wind88%29.98 "Hg10 mi
4:30 AM55 °FPassing clouds.1 mph88%29.98 "HgN/A
4:00 AM55 °FPassing clouds.1 mph88%29.98 "HgN/A
3:30 AM57 °FPassing clouds.1 mph77%29.98 "HgN/A
3:00 AM57 °FPassing clouds.2 mph77%30.01 "HgN/A
2:30 AM57 °FPassing clouds.2 mph82%29.98 "HgN/A
2:00 AM57 °FPassing clouds.2 mph77%30.01 "HgN/A
1:30 AM59 °FPassing clouds.No wind72%30.01 "HgN/A
1:00 AM59 °FPassing clouds.No wind77%30.01 "HgN/A
12:30 AM57 °FPassing clouds.No wind88%30.01 "HgN/A
12:00 AM59 °FPassing clouds.1 mph82%30.01 "HgN/A
11:30 PM
Aug 20
59 °FPassing clouds.1 mph82%30.01 "HgN/A
11:00 PM59 °FPassing clouds.No wind82%30.01 "HgN/A
10:30 PM59 °FClear.No wind82%30.01 "Hg10 mi
10:00 PM59 °FClear.2 mph77%30.01 "Hg10 mi
9:30 PM61 °FClear.2 mph72%30.01 "Hg10 mi
9:00 PM63 °FClear.2 mph68%30.01 "Hg10 mi
8:30 PM63 °FScattered clouds.2 mph64%30.01 "HgN/A
8:00 PM64 °FPassing clouds.3 mph60%29.98 "HgN/A
7:30 PM64 °FPassing clouds.3 mph68%29.98 "HgN/A
7:00 PM66 °FSunny.6 mph64%29.98 "Hg10 mi
6:30 PM66 °FSunny.5 mph64%29.98 "Hg10 mi
6:00 PM68 °FPassing clouds.6 mph53%29.98 "HgN/A
5:30 PM70 °FPassing clouds.9 mph50%29.98 "HgN/A
5:00 PM70 °FPassing clouds.8 mph50%29.98 "HgN/A
4:30 PM70 °FPassing clouds.6 mph53%29.98 "HgN/A
4:00 PM70 °FPassing clouds.3 mph64%29.98 "HgN/A
3:30 PM70 °FPassing clouds.3 mph64%29.98 "HgN/A
3:00 PM70 °FPassing clouds.6 mph64%29.98 "HgN/A
2:30 PM70 °FPassing clouds.6 mph64%29.98 "HgN/A
2:00 PM68 °FPassing clouds.5 mph69%29.98 "HgN/A
Weather by CustomWeather, © 2014

See weather overviewHow to use our weather pages